TimeEST,TemperatureF,Dew PointF,Humidity,Sea Level PressureIn,VisibilityMPH,Wind Direction,Wind SpeedMPH,Gust SpeedMPH,PrecipitationIn,Events,Conditions,WindDirDegrees,DateUTC
12:53 AM,37.0,24.1,59,30.26,10.0,NNW,8.1,16.1,N/A,,Clear,340,2012-12-05 05:53:00
1:53 AM,35.1,19.9,54,30.27,10.0,NNW,8.1,-,N/A,,Clear,340,2012-12-05 06:53:00
2:53 AM,34.0,19.9,56,30.31,10.0,North,5.8,-,N/A,,Mostly Cloudy,350,2012-12-05 07:53:00
3:53 AM,34.0,19.9,56,30.35,10.0,Variable,5.8,-,N/A,,Overcast,0,2012-12-05 08:53:00
4:53 AM,33.1,19.0,56,30.36,10.0,North,6.9,-,N/A,,Overcast,10,2012-12-05 09:53:00
5:53 AM,32.0,19.0,59,30.38,10.0,North,5.8,-,N/A,,Overcast,10,2012-12-05 10:53:00
6:53 AM,32.0,19.0,59,30.40,10.0,NNE,5.8,-,N/A,,Overcast,20,2012-12-05 11:53:00
7:53 AM,32.0,19.0,59,30.42,10.0,NNE,3.5,-,N/A,,Overcast,20,2012-12-05 12:53:00
9:53 AM,35.1,18.0,50,30.45,10.0,NNE,8.1,-,N/A,,Scattered Clouds,20,2012-12-05 14:53:00
10:53 AM,35.1,19.0,52,30.45,10.0,NE,10.4,16.1,N/A,,Clear,40,2012-12-05 15:53:00
11:53 AM,36.0,19.0,50,30.43,10.0,NE,5.8,-,N/A,,Clear,50,2012-12-05 16:53:00
12:53 PM,37.0,19.9,50,30.43,10.0,Calm,Calm,-,N/A,,Clear,0,2012-12-05 17:53:00
1:53 PM,37.9,21.0,51,30.41,10.0,East,4.6,-,N/A,,Clear,90,2012-12-05 18:53:00
2:53 PM,37.9,21.0,51,30.40,10.0,Variable,3.5,-,N/A,,Clear,0,2012-12-05 19:53:00
3:53 PM,37.9,21.0,51,30.39,10.0,Variable,4.6,-,N/A,,Clear,0,2012-12-05 20:53:00
4:53 PM,35.1,21.9,59,30.39,10.0,ESE,5.8,-,N/A,,Clear,120,2012-12-05 21:53:00
5:53 PM,32.0,21.0,64,30.39,10.0,SE,3.5,-,N/A,,Clear,130,2012-12-05 22:53:00
6:53 PM,32.0,23.0,69,30.38,10.0,SE,3.5,-,N/A,,Clear,140,2012-12-05 23:53:00
7:53 PM,28.9,21.9,75,30.37,10.0,ESE,5.8,-,N/A,,Clear,120,2012-12-06 00:53:00
8:53 PM,28.9,21.0,72,30.37,10.0,ESE,4.6,-,N/A,,Clear,120,2012-12-06 01:53:00
9:53 PM,28.0,19.9,72,30.34,10.0,ESE,5.8,-,N/A,,Clear,120,2012-12-06 02:53:00
10:53 PM,30.0,21.9,72,30.32,10.0,ESE,6.9,-,N/A,,Clear,120,2012-12-06 03:53:00
11:53 PM,28.9,21.0,72,30.31,10.0,ESE,5.8,-,N/A,,Clear,110,2012-12-06 04:53:00